Location: Voyageurs National Park
(48.5020°N, 92.9292°W)
Time: 17:48:30
(UTC-06:00)

Daily predictions for brighter satellites

Satellite Brightness Start Highest point End
(mag) Time Altitude Azimuth Time Altitude Azimuth Time Altitude Azimuth
SL-27 R/B 3.7 16:49:01 10° N 16:52:01 23° ENE 16:55:01 10° ESE
CSL-04 Debris 4.2 16:47:22 10° SSE 16:52:45 86° ENE 16:58:12 10° NNW
CSL-04 Rocket 3.9 16:48:13 10° SSE 16:53:41 82° WSW 16:59:16 10° NNW
Cosmos 2154 Rocket 4.0 16:47:42 10° N 16:53:57 77° E 17:00:12 10° SSE
Okean 1 Rocket 3.0 16:50:01 10° N 16:54:22 77° E 16:58:42 10° SSE
MSX 4.4 16:50:44 10° SE 16:55:48 34° ENE 17:00:54 10° N
COSMO-SKYMED 1 4.5 16:58:37 10° ENE 17:00:06 11° E 17:01:34 10° ESE
Cosmos 1544 Rocket 4.5 16:56:44 10° NNE 17:00:34 27° ENE 17:04:24 10° SE
Cosmos 158 Rocket 4.1 16:55:17 10° NNW 17:00:38 61° ENE 17:05:53 10° SE
SJ-12 4.3 16:56:55 10° SE 17:00:48 43° ENE 17:04:43 10° N
CZ-4 R/B 1.6 16:59:09 10° SSE 17:03:14 54° ENE 17:07:18 10° N
Okean 3 3.7 16:59:16 10° S 17:03:25 50° E 17:07:34 10° NNE
Cosmos 1048 Rocket 4.1 16:58:49 10° NNW 17:04:09 88° ENE 17:09:30 10° SSE
Cosmos 1844 Rocket 3.6 17:01:15 10° SSE 17:05:58 29° ESE 17:10:43 10° NE
Cosmos 1975 Rocket 3.5 17:03:45 10° SSE 17:07:45 39° E 17:11:48 10° NNE
Meteor 1-27 Rocket 3.8 17:02:17 10° S 17:08:08 84° E 17:13:54 10° NNE
GEOS 3 Rocket 3.9 17:05:02 10° ESE 17:09:53 45° NE 17:14:46 10° NNW
CZ-2C R/B 2.6 17:05:11 10° SSE 17:10:02 55° ENE 17:15:02 10° N
CZ-2C R/B 3.6 17:05:44 10° NNE 17:10:12 82° ESE 17:14:40 10° SSW
Cosmos 1238 Rocket 4.0 17:11:39 10° ESE 17:13:12 13° E 17:13:46 13° ENE
Cosmos 1975 4.2 17:11:21 10° NNE 17:14:19 19° ENE 17:17:16 10° ESE
CZ-3A R/B 3.3 17:10:00 10° SW 17:14:22 70° SE 17:35:18 11° ENE
BREEZE-M DEB (TANK) 2.9 17:15:00 10° SSW 17:17:00 26° SSE 17:18:34 13° E
AQUARIUS 4.1 17:17:30 10° SSE 17:21:58 67° ENE 17:26:27 10° N
MOS 1 4.2 17:17:06 10° SSE 17:22:45 78° ENE 17:28:25 10° NNW
CORIOLIS 4.1 17:19:48 10° SSE 17:25:10 67° ENE 17:30:32 10° N
SPOT 3 Rocket 3.5 17:23:26 10° SSE 17:28:37 82° ENE 17:33:49 10° NNW
PAYLOAD A 4.2 17:24:10 10° S 17:28:57 72° WSW 17:33:56 10° NNW
SMAP 3.0 17:25:47 10° SSE 17:30:25 81° ENE 17:35:07 10° NNW
COSMOS 2406 3.5 17:25:54 10° NNW 17:31:37 72° WSW 17:37:19 10° SSE
YAOGAN 1 2.5 17:27:31 10° SSE 17:31:51 77° ENE 17:36:11 10° N
SL-8 Rocket 3.9 17:26:21 10° N 17:32:32 71° E 17:38:40 10° SSE
Cosmos 2278 Rocket 3.4 17:29:47 10° SSE 17:34:04 23° ESE 17:36:35 17° ENE
COSMOS 2487 4.1 17:32:27 10° N 17:34:36 18° NE 17:34:36 18° NE
Meteor 1-5 Rocket 4.2 17:36:41 10° NNW 17:42:04 81° W 17:47:35 10° S
Cosmos 1378 Rocket 4.1 17:38:09 10° SSW 17:42:23 58° WNW 17:46:40 10° N
Cosmos 2366 rocket 4.0 17:36:15 10° N 17:42:36 64° ENE 17:48:51 10° SSE
Abrixas 2.3 17:39:49 10° W 17:42:47 89° NNW 17:44:08 29° E
Cosmos 2218 Rocket 3.9 17:38:07 10° N 17:44:28 73° E 17:50:42 10° SSE
IDEFIX/ARIANE 42P 2.7 17:39:44 10° S 17:44:57 80° WSW 17:50:11 10° NNW
USA 32 4.0 17:40:02 10° S 17:45:12 65° E 17:50:23 10° N
Meteor 2-19 Rocket 4.3 17:40:26 10° N 17:46:32 81° E 17:52:35 10° SSE
Cosmos 1959 Rocket 4.4 17:42:22 10° N 17:48:33 78° E 17:54:47 10° SSE
SKYMED 2 4.3 17:46:12 19° NE 17:48:40 33° E 17:52:35 10° SSE
Cosmos 1484 Rocket 2.8 17:45:12 10° SSE 17:48:50 49° ENE 17:52:28 10° N
Cosmos 2181 Rocket 4.1 17:42:37 10° S 17:49:00 84° W 17:55:29 10° N
Genesis I 3.9 17:45:58 10° NNW 17:49:37 34° NE 17:50:56 27° E
CZ-3B DEB 2.9 17:45:53 10° SSW 17:49:46 41° ESE 17:55:17 20° ENE
Cosmos 1455 Rocket 3.0 17:46:07 10° N 17:50:30 64° ENE 17:54:53 10° SSE
USA 234 3.3 17:45:29 17° NE 17:50:46 86° NNW 17:57:19 10° WSW
Cosmos 372 Rocket 4.0 17:45:44 10° SSW 17:50:59 88° WNW 17:56:18 10° NNE
APEX 4.4 17:45:50 10° SW 17:52:20 74° WNW 17:56:57 13° NNE
Cosmos 2082 Rocket 2.8 17:49:48 10° NNW 17:54:55 34° NE 17:57:45 22° E
NOSS 3-4 (A) 4.4 17:50:16 10° NW 17:56:25 35° NNE 17:59:50 23° ENE
NOSS 3-4 (C) 4.4 17:50:23 10° NW 17:56:31 34° NNE 17:59:55 23° ENE
ALOS 4.5 18:01:53 10° NNE 18:01:53 10° NNE 18:01:56 10° NNE
Cosmos 1833 Rocket 3.4 17:55:50 10° NNW 18:00:54 32° NE 18:02:46 26° E
BREEZE-M DEB (TANK) 3.4 17:54:57 10° W 18:03:13 70° N 18:05:27 29° ENE
Thor Agena Rocket 3.7 17:58:03 10° NNE 18:03:15 77° WNW 18:08:29 10° SSW
Cosmos 375 4.4 17:58:28 10° NW 18:03:22 71° NE 18:05:55 22° SE
Cosmos 494 Rocket 3.9 17:59:35 10° NNW 18:04:51 88° ENE 18:10:07 10° SSE
Cosmos 1125 Rocket 4.4 18:00:08 10° SW 18:05:16 50° WNW 18:10:28 10° NNE
ATLAS CENTAUR R/B 3.9 18:04:21 10° NW 18:06:37 13° NNW 18:08:48 10° N
Cosmos 1809 Rocket 4.5 18:01:55 10° N 18:08:01 57° ENE 18:14:02 10° SSE
Cosmos 1500 3.2 18:06:04 10° N 18:09:49 52° ENE 18:13:34 10° SSE
ATLAS 2AS CENTAUR R/B 3.3 18:04:22 10° NW 18:12:28 72° SW 18:20:05 10° SSE
Okean 1 3.4 18:09:22 10° S 18:13:19 54° E 18:14:31 38° NE
ERBS 4.2 18:12:10 10° NW 18:14:45 19° N 18:14:53 19° N
Cosmos 1821 Rocket 4.3 18:12:16 10° N 18:17:59 39° ENE 18:23:38 10° SE
NOAA 12 4.1 18:13:04 10° SE 18:18:14 56° ENE 18:23:23 10° N
Cosmos 2251 Rocket 4.0 18:13:05 10° NNW 18:18:25 65° WSW 18:23:41 10° S
METEOR-M 4.3 18:13:55 10° SE 18:19:02 49° ENE 18:24:10 10° N
ISS -3.1 18:18:41 10° SW 18:21:48 57° SSE 18:21:48 57° SSE
Meteor 1-18 Rocket 4.2 18:17:39 10° S 18:23:17 86° E 18:29:05 10° NNE
Cosmos 2263 Rocket 4.0 18:19:14 10° W 18:23:50 25° NW 18:28:29 10° N
SL-27 R/B 4.5 18:24:02 10° NW 18:27:21 31° WSW 18:30:36 10° SSW
Cosmos 1812 3.1 18:29:52 10° SSW 18:33:41 64° W 18:35:36 28° N
Cosmos 1346 Rocket 3.8 18:30:23 10° S 18:32:45 33° SSE 18:32:45 33° SSE
DMSP B5D1-3 4.4 18:34:03 29° NNE 18:36:43 72° ESE 18:41:50 10° S
COSMO-SKYMED 1 2.5 18:34:48 31° N 18:36:52 84° WNW 18:41:12 10° SSW
Meteor 2-21 4.4 18:33:03 10° N 18:39:18 89° WSW 18:45:27 10° S
BREEZE-M DEB (TANK) 4.3 18:15:32 10° W 18:41:44 70° NNW 18:44:29 39° ENE
Nadezhda 3 Rocket 3.9 18:36:57 10° S 18:43:05 69° E 18:49:20 10° NNE
Cosmos 1844 Rocket 3.3 18:44:07 10° SW 18:49:34 52° NW 18:52:50 24° N
Cosmos 1975 4.0 18:47:11 10° NNW 18:51:05 43° W 18:54:55 10° SSW
Cosmos 1238 Rocket 4.3 18:50:18 10° SW 18:52:48 25° WNW 18:53:00 25° WNW
Cosmos 1844 4.2 18:54:33 10° SW 19:00:01 57° WNW 19:02:20 33° N
Cosmos 2297 4.4 18:55:37 10° S 18:59:27 39° SSE 18:59:27 39° SSE
Meteor 2-14 Rocket 4.5 18:57:03 10° NNW 19:03:15 81° W 19:09:22 10° S
CZ-3A R/B 3.5 18:54:32 10° W 19:06:06 54° NNW 19:07:18 45° NNE
BREEZE-M R/B 3.8 18:59:52 10° SW 19:08:02 60° SSE 19:08:02 60° SSE
Meteor 1-19 Rocket 4.3 19:07:08 10° S 19:12:12 69° SSE 19:12:12 69° SSE
FengYun 1-2 T 4.2 19:14:30 78° N 19:14:30 78° N 19:19:49 10° NNW
Cosmos 2278 Rocket 2.4 19:12:02 10° SW 19:17:40 65° WNW 19:18:28 58° NNW
Resurs 01 Rocket 4.2 19:23:54 11° NNW 19:23:54 11° NNW 19:24:09 10° NNW
FALCON 9 R/B 4.1 19:09:57 10° WSW 19:24:22 32° SSW 19:26:28 28° SSE
USA 234 3.7 19:32:50 46° N 19:33:27 47° NNW 19:39:39 10° W
Cosmos 2082 Rocket 2.9 19:33:46 10° NW 19:39:12 49° WSW 19:39:41 48° SW
Cosmos 1934 Rocket 4.2 19:35:49 10° NNW 19:41:47 67° W 19:41:47 67° W
Cosmos 1833 Rocket 3.4 19:39:37 10° NW 19:44:31 50° W 19:44:31 50° W
NOSS 3-4 (A) 3.8 19:41:10 10° NW 19:47:19 72° NW 19:47:19 72° NW
NOSS 3-4 (C) 3.8 19:41:17 10° NW 19:47:23 72° NW 19:47:23 72° NW
BREEZE M DEB (TANK) 4.1 19:46:22 10° WNW 19:50:35 63° SSW 19:50:35 63° SSW
CZ-3B DEB 3.6 20:18:27 10° W 20:24:12 65° NNW 20:24:12 65° NNW
